#timestamp,LO_Frequency,Hit,StdDev 
1512540015.6,286047001.6,N
1512540035.4,286047002.4,N
1512540055.3,286047002.8,N
1512540075.1,286047002.4,N
1512540095.9,286047001.6,N
1512540115.7,286046999.8,N
1512540135.5,286047000.6,N
1512540155.4,286046997.0,N
1512540175.2,286046997.8,N
1512540195.0,286046996.9,N
1512540195.9,286046996.9,N
1512540215.8,286046997.7,N
1512540235.6,286046995.1,N
1512540255.5,286046994.9,N
1512540275.3,286046997.1,N
1512540295.1,286047000.6,N
1512540315.9,286047002.6,N
1512540335.7,286046998.4,N
1512540355.5,286046996.8,N
1512540375.4,286046993.4,Y
1512540395.2,286046997.2,P
1512540415.1,286046999.2,N
1512540416.0,286046999.2,N
1512540435.8,286046999.7,N
1512540455.6,286046999.7,N
1512540475.5,286047002.7,Y
1512540495.3,286047001.2,P
1512540515.2,286047001.2,N
1512540535.9,286047000.0,N
1512540555.7,286047001.1,N
1512540575.6,286047000.8,N
1512540595.4,286047001.5,N
1512540615.2,286047003.2,Y
1512540635.1,286047006.0,P
1512540636.0,286047006.0,N
1512540655.8,286047006.0,N
1512540675.7,286047005.9,N
1512540695.5,286047003.0,N
1512540715.3,286047003.2,N
1512540735.2,286046999.8,N
1512540755.0,286047002.3,N
1512540755.9,286047002.3,N
1512540775.8,286047004.0,N
1512540795.6,286047003.9,N
1512540815.4,286047007.1,Y
1512540835.3,286047000.2,P
1512540855.1,286047000.5,N
1512540875.8,286047000.8,N
1512540895.7,286047000.8,N
1512540915.5,286046999.2,N
1512540935.4,286046999.6,N
1512540955.2,286046998.1,N
1512540975.0,286046999.6,N
1512540975.9,286046999.6,N
1512540995.8,286046997.5,N
1512541015.6,286046993.9,Y
1512541035.5,286046995.3,P
1512541055.3,286046999.0,N
1512541075.1,286046995.1,N
1512541095.9,286046998.0,N
1512541115.7,286046993.3,Y
1512541135.5,286046996.4,P
1512541155.4,286046998.0,P
1512541175.2,286046997.2,P
1512541195.1,286046997.1,Y
1512541196.0,286046997.1,P
1512541215.8,286047000.6,P
1512541235.6,286047003.7,N
1512541255.5,286047001.3,N
1512541275.3,286047004.7,N
1512541295.1,286047003.6,N
1512541315.9,286047003.8,N
1512541335.7,286047003.7,N
1512541355.6,286047004.0,N
1512541375.4,286047003.0,N
1512541395.2,286047004.6,N
1512541415.1,286047005.0,N
1512541416.0,286047005.0,N
1512541435.8,286047003.7,N
1512541455.7,286046999.3,N
1512541475.5,286047000.1,N
1512541495.3,286047004.4,N
1512541515.2,286047003.2,N
1512541535.0,286047001.6,N
1512541535.9,286047001.6,N
1512541555.8,286047003.2,N
1512541575.6,286047002.3,N
1512541595.4,286047004.0,N
1512541615.3,286047002.2,N
1512541635.1,286047000.2,N
1512541655.9,286047002.6,N
1512541675.7,286047002.9,N
1512541695.5,286047007.4,Y
1512541715.4,286047003.8,P
1512541735.2,286047000.6,N
1512541755.0,286047000.9,N
1512541756.0,286047000.9,N
1512541775.8,286047002.1,N
1512541795.6,286047002.1,N
1512541815.5,286047001.7,N
1512541835.3,286047003.1,Y
1512541855.1,286047002.0,P
1512541875.9,286047000.7,P
1512541895.7,286046998.7,N
1512541915.6,286046997.8,N
1512541935.4,286046997.4,N
1512541955.2,286046997.3,N
1512541975.1,286046999.5,N
1512541976.0,286046999.5,N
1512541995.8,286046998.2,N
1512542015.7,286047000.9,N
1512542035.5,286047002.7,N
1512542055.3,286046998.2,N
1512542075.2,286046999.6,N
1512542095.0,286046996.9,N
1512542095.9,286046996.9,N
1512542115.8,286047000.7,N
1512542135.6,286047002.1,N
1512542155.4,286047004.1,N
1512542175.3,286047000.1,N
1512542195.1,286047000.7,N
1512542215.8,286046998.2,N
1512542235.7,286046996.9,N
1512542255.5,286046996.5,N
1512542275.4,286047000.5,N
1512542295.2,286047000.6,N
1512542315.0,286047001.9,N
1512542315.9,286047001.9,N
1512542335.8,286047000.4,N
1512542355.6,286046998.3,N
1512542375.5,286046996.7,N
1512542395.3,286046999.5,N
1512542415.1,286047000.0,N
1512542435.9,286046998.6,N
1512542455.7,286046995.0,N
1512542475.5,286046996.6,N
1512542495.4,286046999.5,N
1512542515.2,286046998.4,N
1512542535.1,286046995.4,N
1512542536.0,286046995.4,N
1512542555.8,286046992.1,Y
1512542575.6,286046990.7,P
1512542595.5,286046992.0,N
1512542615.3,286046992.3,N
1512542635.2,286046991.4,N
1512542655.9,286046992.5,N
1512542675.7,286046992.2,N
1512542695.6,286046994.4,N
1512542715.4,286046993.8,N
1512542735.3,286046995.9,N
1512542755.1,286046995.3,N
1512542756.0,286046995.3,N
1512542775.8,286046999.1,N
1512542795.7,286046998.7,N
1512542815.5,286046995.7,N
1512542835.3,286046995.3,N
1512542855.2,286046995.5,N
1512542875.0,286046996.3,N
1512542875.9,286046996.3,N
1512542895.8,286046995.7,N
1512542915.6,286046995.8,N
1512542935.4,286046997.8,N
1512542955.3,286046996.1,N
1512542975.1,286046995.3,N
1512542995.9,286046993.6,N
1512543015.7,286046992.1,Y
1512543035.5,286046998.7,P
1512543055.4,286046998.5,N
1512543075.2,286047002.6,N
1512543095.1,286047002.0,N
1512543096.0,286047002.0,N
1512543115.8,286047001.6,N
1512543135.6,286047001.3,N
1512543155.5,286046999.7,N
1512543175.3,286047001.6,N
1512543195.1,286047002.1,N
1512543215.9,286047000.5,N
1512543235.7,286047002.4,N
1512543255.6,286047001.4,N
1512543275.4,286047000.0,N
1512543295.2,286047002.2,N
1512543315.1,286047005.4,N
1512543316.0,286047005.4,N
1512543335.8,286047004.8,N
1512543355.7,286047003.2,N
1512543375.5,286047005.3,N
1512543395.3,286047003.4,N
1512543415.2,286047002.0,N
1512543435.0,286047002.0,N
1512543435.9,286047002.0,N
1512543455.8,286047004.4,N
1512543475.6,286047004.6,N
1512543495.4,286047005.2,N
1512543515.3,286047006.0,N
1512543535.1,286047007.4,Y
1512543555.8,286047002.9,P
1512543575.7,286046999.9,N
1512543595.5,286047000.7,N
